Simultaneous Nadir Overpasses (SNOs) Predictions

Prediction of SNOs between AQUA and METOP-A Satellite Orbit:

Table of predicted SNOs for the next 14.0 days since TLE Epoch: 2/18/2017
Index Date (AQUA) Time (AQUA) Lat,Lon (AQUA) SZA (AQUA ) Date (METOP-A) Time (METOP-A) Lat,Lon (METOP-A) SZA (METOP-A ) Distance(km) Time Diff (sec)
1 02/19/2017 09:38:36 73.81, 29.56 85.06 02/19/2017 09:37:47 73.82, 29.55 85.09 1.20 49
2 02/19/2017 10:28:03 -73.89,-162.99 94.86 02/19/2017 10:28:27 -73.89,-162.95 94.87 1.07 24
3 02/22/2017 05:12:53 73.82, 95.97 84.06 02/22/2017 05:12:08 73.84, 96.01 84.09 2.48 45
4 02/22/2017 06:02:20 -73.90, -96.57 95.87 02/22/2017 06:02:48 -73.92, -96.48 95.87 3.09 28
5 02/25/2017 00:47:10 73.84, 162.36 83.04 02/25/2017 00:46:30 73.81, 162.35 83.02 3.63 40
6 02/25/2017 01:36:37 -73.92, -30.16 96.90 02/25/2017 01:37:10 -73.89, -30.13 96.93 3.05 33
7 02/27/2017 20:21:25 73.82,-131.16 81.96 02/27/2017 20:20:50 73.83,-131.20 81.97 1.57 35
8 02/27/2017 21:10:52 -73.89, 36.33 97.99 02/27/2017 21:11:30 -73.92, 36.33 97.97 2.73 38
9 03/02/2017 15:55:42 73.86, -64.80 80.92 03/02/2017 15:55:11 73.85, -64.75 80.91 2.24 31
10 03/02/2017 16:45:09 -73.92, 102.70 99.03 03/02/2017 16:45:51 -73.94, 102.79 99.02 3.22 42




NCC Satellite Simultaneous Nadir Overpasses (SNOs) Prediction Service
